EST,Max TemperatureF,Mean TemperatureF,Min TemperatureF,Max Dew PointF,MeanDew PointF,Min DewpointF,Max Humidity, Mean Humidity, Min Humidity, Max Sea Level PressureIn, Mean Sea Level PressureIn, Min Sea Level PressureIn, Max VisibilityMiles, Mean VisibilityMiles, Min VisibilityMiles, Max Wind SpeedMPH, Mean Wind SpeedMPH, Max Gust SpeedMPH,PrecipitationIn, CloudCover, Events, WindDirDegrees
2013-1-1,36,31,26,32,29,18,96,83,70,30.15,30.08,30.01,10,5,0,12,4,17,0.04,8,Fog-Snow,263
2013-1-2,31,25,18,19,15,12,84,69,53,30.29,30.22,30.14,10,10,8,12,3,14,0.00,3,,288
2013-1-3,37,27,16,20,18,13,92,72,51,30.33,30.28,30.22,10,8,3,17,5,26,0.00,2,,261
2013-1-4,36,33,30,22,20,19,69,63,56,30.37,30.33,30.29,10,10,9,18,8,25,0.00,5,,244
2013-1-5,40,32,24,25,22,20,81,65,48,30.45,30.35,30.22,10,10,8,9,5,14,0.00,2,,192
2013-1-6,44,37,30,32,28,24,82,71,59,30.32,30.16,30.05,10,9,6,17,9,25,T,8,,244
2013-1-7,35,29,23,25,23,20,88,76,64,30.55,30.43,30.32,10,6,3,12,3,15,0.00,6,,208
2013-1-8,52,37,21,30,25,19,92,66,39,30.39,30.33,30.28,10,8,2,12,4,21,0.00,0,,203
2013-1-9,49,38,27,43,35,25,100,80,60,30.56,30.43,30.30,10,5,0,15,4,21,0.03,2,Fog-Rain,220
2013-1-10,43,34,25,34,29,23,100,84,67,30.63,30.51,30.26,10,5,0,10,2,13,0.00,3,Fog,69
2013-1-11,60,51,41,54,50,33,100,83,65,30.23,30.05,30.00,10,6,0,21,7,26,0.20,4,Fog-Rain,169
2013-1-12,68,60,52,58,55,52,100,87,73,30.12,30.05,29.94,10,10,3,12,5,16,0.03,5,Rain,168
2013-1-13,64,62,60,57,55,53,84,78,72,30.01,29.94,29.88,10,8,2,14,8,20,0.01,6,Rain,196
2013-1-14,58,46,33,54,34,25,89,77,64,30.41,30.23,29.99,10,9,2,25,6,35,0.06,7,Rain,300
2013-1-15,37,34,30,30,26,23,92,78,64,30.40,30.25,30.08,10,7,3,12,7,15,0.35,8,Rain,8
2013-1-16,35,34,32,32,31,30,96,89,82,30.11,30.03,29.94,10,5,1,12,4,18,0.20,7,Rain,223
2013-1-17,36,34,31,30,28,27,89,80,70,30.30,30.20,30.12,10,8,5,14,3,18,0.00,2,,274
2013-1-18,35,27,19,26,15,9,85,64,43,30.59,30.48,30.33,10,10,8,20,7,28,0.00,0,,216
2013-1-19,54,44,33,23,20,17,61,44,26,30.33,30.16,29.96,10,10,10,24,12,31,0.00,0,,200
2013-1-20,46,37,27,30,17,7,58,44,29,30.20,30.10,29.94,10,10,10,25,10,35,0.00,2,,260
2013-1-21,31,22,13,18,13,0,63,56,49,30.22,30.09,30.00,10,8,0,23,9,31,T,6,Snow,267
2013-1-22,19,13,7,-2,-3,-5,63,50,37,30.39,30.33,30.22,10,10,10,21,9,30,0.00,2,,267
2013-1-23,21,15,8,16,7,-2,92,66,39,30.40,30.26,30.11,10,7,2,14,4,18,0.01,6,Snow,216
2013-1-24,25,19,12,15,10,4,92,68,44,30.60,30.37,30.10,10,6,1,13,5,16,0.00,6,Snow,289
2013-1-25,23,18,12,19,13,4,84,67,49,30.52,30.18,30.05,10,6,0,14,4,20,0.12,7,Fog-Snow,143
2013-1-26,30,27,23,22,19,14,88,73,57,30.50,30.30,30.15,10,7,2,13,6,16,T,8,Snow,255
2013-1-27,36,25,13,26,17,11,92,72,51,30.56,30.47,30.34,10,9,5,8,2,10,0.01,4,Fog-Rain,65
2013-1-28,53,43,32,52,43,28,93,81,68,30.32,30.16,30.09,10,5,1,21,9,33,0.62,8,Rain,196
2013-1-29,69,61,52,52,50,47,93,71,49,30.12,30.02,29.80,10,8,2,20,9,29,0.02,5,Rain,193
2013-1-30,68,54,40,57,51,35,93,74,55,29.74,29.50,29.33,10,7,1,33,11,52,1.27,6,Rain,189
2013-1-31,40,33,26,36,21,10,84,65,46,29.95,29.82,29.44,10,6,0,28,13,41,0.04,8,Fog-Rain-Snow,253